Lake Charles, LA

3:59 PM CDT on June 22, 2017 (GMT -0500)
Chennault International

Weather History for KCWF - November, 2012

Change the Weather History Date:

Sunday, November 11, 2012

  Actual Average Record
Temperature  
Mean Temperature 70 °F -  
Max Temperature 73 °F 70 °F 87 °F (2003)
Min Temperature 67 °F 55 °F 35 °F (2011)
Cooling Degree Days 5    
Growing Degree Days 20 (Base 50)    
Moisture  
Dew Point 66 °F    
Average Humidity 88    
Maximum Humidity 94    
Minimum Humidity 76    
Precipitation  
Precipitation 0.00 in - - ()
Sea Level Pressure  
Sea Level Pressure 30.04 in    
Wind  
Wind Speed 11 mph (SE)    
Max Wind Speed 15 mph    
Max Gust Speed 21 mph    
Visibility 7 miles    
Events Rain    
Averages and records for this station are not official NWS values.
T = Trace of Precipitation, MM = Missing Value Source: NWS Daily Summary

Daily Weather History Graph

Daily Weather History Graph

Search for Another Location

Airport or City:

Trip Planner

Search our weather history database for the weather conditions in past years. The results will help you decide how hot, cold, wet, or windy it might be!

Date:

Astronomy

Nov. 11, 2012 Rise Set
Actual Time 6:35 AM CST 5:17 PM CST
Civil Twilight 6:09 AM CST 5:43 PM CST
Nautical Twilight 5:41 AM CST 6:11 PM CST
Astronomical Twilight 5:12 AM CST 6:40 PM CST
Moon 3:58 AM CST (11/11) 3:35 PM CST (11/11)
Length of Visible Light 11h 33m
Length of Day
10h 42m
Waning Crescent, 7% of the Moon is Illuminated
Nov 11
Waning Crescent
Nov 13
New
Nov 20
First Quarter
Nov 28
Full
Dec 6
Last Quarter

Hourly Weather History & Observations

Time (CST) Temp. Dew Point Humidity Pressure Visibility Wind Dir Wind Speed Gust Speed Precip Events Conditions
12:15 AM 69.8 °F 62.6 °F 78% 30.06 in 10.0 mi SE 13.8 mph 19.6 mph N/A   Mostly Cloudy
12:35 AM 70.2 °F 62.4 °F 76% 30.05 in 10.0 mi SE 15.0 mph 18.4 mph N/A   Overcast
12:55 AM 69.8 °F 62.1 °F 76% 30.04 in 10.0 mi SE 13.8 mph 19.6 mph N/A   Scattered Clouds
1:15 AM 69.1 °F 62.4 °F 79% 30.04 in 10.0 mi SE 11.5 mph 17.3 mph N/A   Clear
1:35 AM 68.4 °F 62.4 °F 81% 30.04 in 10.0 mi SE 9.2 mph - N/A   Scattered Clouds
1:55 AM 68.0 °F 62.6 °F 83% 30.03 in 10.0 mi SE 11.5 mph 18.4 mph N/A   Clear
2:15 AM 67.6 °F 62.6 °F 84% 30.02 in 10.0 mi SE 12.7 mph 18.4 mph N/A   Clear
2:35 AM 67.6 °F 62.8 °F 84% 30.01 in 10.0 mi SE 12.7 mph - N/A   Clear
2:55 AM 67.5 °F 63.0 °F 85% 30.01 in 10.0 mi ESE 12.7 mph - N/A   Clear
3:15 AM 67.5 °F 63.0 °F 85% 30.01 in 10.0 mi SE 11.5 mph 18.4 mph N/A   Clear
3:35 AM 67.3 °F 63.1 °F 87% 30.01 in 10.0 mi SE 11.5 mph - N/A   Clear
3:55 AM 67.3 °F 63.1 °F 87% 30.01 in 10.0 mi SE 10.4 mph - N/A   Clear
4:15 AM 67.3 °F 63.5 °F 88% 30.01 in 10.0 mi SE 9.2 mph - N/A   Scattered Clouds
4:35 AM 67.3 °F 63.5 °F 88% 30.01 in 10.0 mi ESE 9.2 mph - N/A   Scattered Clouds
4:55 AM 67.6 °F 63.7 °F 87% 30.01 in 10.0 mi ESE 11.5 mph - N/A   Mostly Cloudy
6:00 AM 69.8 °F 64.4 °F 83% 30.01 in 10.0 mi ESE 12.7 mph - N/A   Scattered Clouds
6:50 AM 69.8 °F 64.4 °F 83% 30.02 in 10.0 mi ESE 12.7 mph 17.3 mph N/A   Overcast
7:55 AM 71.6 °F 64.4 °F 78% 30.04 in 10.0 mi SE 10.4 mph 16.1 mph N/A   Overcast
8:50 AM 69.8 °F 66.2 °F 88% 30.06 in 7.0 mi SE 10.4 mph 17.3 mph N/A   Overcast
10:50 AM 71.6 °F 66.2 °F 83% 30.07 in 3.0 mi SSE 11.5 mph 17.3 mph N/A Rain Light Rain
11:50 AM 71.6 °F 68.0 °F 88% 30.05 in 3.0 mi SSE 11.5 mph 17.3 mph N/A   Overcast
12:45 PM 71.6 °F 69.8 °F 94% 30.02 in 2.0 mi SSE 10.4 mph - N/A   Overcast
1:45 PM 73.4 °F 69.8 °F 88% 30.00 in 6.0 mi SE 13.8 mph - N/A   Overcast
2:45 PM 71.6 °F 68.0 °F 88% 30.00 in 2.0 mi SE 12.7 mph - N/A Rain Light Rain
3:13 PM 71.6 °F 69.8 °F 94% 30.00 in 6.0 mi SE 8.1 mph - N/A   Light Drizzle
3:50 PM 71.6 °F 69.8 °F 94% 30.00 in 2.0 mi SSE 12.7 mph 20.7 mph N/A Rain Rain
4:47 PM 69.8 °F 66.2 °F 88% 30.00 in 7.0 mi SSE 9.2 mph - N/A   Mostly Cloudy
5:50 PM 71.6 °F 68.0 °F 88% 30.01 in 10.0 mi SE 11.5 mph - N/A   Overcast
6:50 PM 69.8 °F 68.0 °F 94% 30.03 in 10.0 mi SSE 3.5 mph - N/A   Overcast
7:50 PM 69.8 °F 68.0 °F 94% 30.05 in 10.0 mi SSE 4.6 mph - N/A   Overcast
8:50 PM 69.8 °F 68.0 °F 94% 30.06 in 10.0 mi SSE 6.9 mph - N/A   Overcast
9:15 PM 70.3 °F 68.0 °F 92% 30.07 in 7.0 mi SSE 4.6 mph - N/A   Overcast
9:35 PM 70.2 °F 68.0 °F 93% 30.07 in 7.0 mi SSE 4.6 mph - N/A   Overcast
9:50 PM 69.8 °F 68.0 °F 94% 30.07 in 7.0 mi SE 4.6 mph - N/A   Overcast
9:55 PM 70.0 °F 68.0 °F 93% 30.07 in 5.0 mi SE 5.8 mph - N/A   Overcast
10:15 PM 70.2 °F 68.0 °F 93% 30.08 in 5.0 mi SSE 4.6 mph - N/A   Mostly Cloudy
10:35 PM 69.8 °F 67.6 °F 93% 30.08 in 5.0 mi SSE 3.5 mph - N/A   Mostly Cloudy
10:55 PM 69.3 °F 67.3 °F 93% 30.09 in 3.0 mi South 3.5 mph - N/A   Overcast
11:15 PM 69.8 °F 67.6 °F 93% 30.08 in 4.0 mi SSE 4.6 mph - N/A   Scattered Clouds
11:35 PM 68.4 °F 66.4 °F 93% 30.08 in 1.8 mi SSE 3.5 mph - N/A   Unknown
11:55 PM 67.3 °F 65.5 °F 94% 30.08 in 0.5 mi Calm Calm - N/A   Unknown